Waarnemingen

Advertentie
Mijn weer
Andernach, Duitsland (10520): temperatuur & dauwpunt: 19.09.2017 06:00:00 - 25.09.2017 06:00:00 (CEST)Andernach, Duitsland (10520): temperatuur 5cm & temperatuur -5cm: 19.09.2017 06:00:00 - 25.09.2017 06:00:00 (CEST)Andernach, Duitsland (10520): temperatuur -20cm & temperatuur -100cm: 19.09.2017 06:00:00 - 25.09.2017 06:00:00 (CEST)Andernach, Duitsland (10520): windsnelheid & windstoten: 19.09.2017 06:00:00 - 25.09.2017 06:00:00 (CEST)Andernach, Duitsland (10520): windrichting: 19.09.2017 06:00:00 - 25.09.2017 06:00:00 (CEST)Andernach, Duitsland (10520): luchtdruk: 19.09.2017 06:00:00 - 25.09.2017 06:00:00 (CEST)Andernach, Duitsland (10520): zicht: 19.09.2017 06:00:00 - 25.09.2017 06:00:00 (CEST)Andernach, Duitsland (10520): Zonneschijnduur: 19.09.2017 06:00:00 - 25.09.2017 06:00:00 (CEST)Andernach, Duitsland (10520): neerslag: 19.09.2017 06:00:00 - 25.09.2017 06:00:00 (CEST)
Datum & Tijd tt [°C] td [°C] tt 5cm [°C] tt -5cm [°C] tt -20cm [°C] tt -100cm [°C] ff [km/u] ff [kn] fx [km/u] fx [kn] dd ppp [hPa] vv [km] sd [min] rr [mm]
25.09.2017 06:00:00 9,6 9,6 9,7 10,8 13,7 16,2 3 1 4 2 ZZW 1021,8 0,2 0 0,0
25.09.2017 05:00:00 8,9 8,7 9,0 10,4 14,0 16,2 0 0 8 4 N 1021,9 1,5 0 0,0
25.09.2017 04:00:00 8,4 8,3 8,3 10,0 14,3 16,2 5 3 6 3 Z 1022,1 0,2 0 0,0
25.09.2017 03:00:00 8,4 8,0 5,6 10,0 14,6 16,2 5 3 7 4 ZZW 1022,3 6 0 0,0
25.09.2017 02:00:00 8,7 8,3 5,6 10,5 14,9 16,2 5 3 6 3 ZZW 1022,5 6 0 0,0
25.09.2017 01:00:00 8,7 8,4 5,6 11,2 15,3 16,2 3 2 5 3 ZZW 1022,8 4,3 0 0,0
25.09.2017 00:00:00 9,4 9,0 6,3 11,9 15,6 16,3 4 2 7 4 ZZO 1022,9 3,5 0 0,0
24.09.2017 23:00:00 10,2 9,7 6,7 12,8 15,9 16,3 3 2 5 3 Z 1022,8 4,2 0 0,0
24.09.2017 22:00:00 11,5 10,7 7,7 13,8 16,2 16,3 0 0 6 3 N 1022,8 7 0 0,0
24.09.2017 21:00:00 12,9 11,9 8,9 15,2 16,4 16,3 0 0 4 2 N 1022,3 11 0 0,0
24.09.2017 20:00:00 14,7 12,6 10,1 17,1 16,5 16,3 2 1 8 4 NNO 1021,9 19 0 0,0
24.09.2017 19:00:00 17,2 12,4 16,4 18,6 16,4 16,3 4 2 7 4 ONO 1021,8 27 0 0,0
24.09.2017 18:00:00 18,0 12,3 17,7 19,6 16,2 16,3 4 2 11 6 NO 1021,7 22 0 0,0
24.09.2017 17:00:00 18,3 11,6 18,5 21,3 15,7 16,3 4 2 10 6 OZO 1021,7 26 2 0,0
24.09.2017 16:00:00 18,8 10,3 20,2 23,4 15,1 16,3 5 3 12 7 OZO 1021,8 27 42 0,0
24.09.2017 15:00:00 18,5 11,4 22,0 22,4 14,5 16,3 4 2 9 5 ZO 1022,2 15 60 0,0
24.09.2017 14:00:00 17,2 11,7 21,3 20,1 14,0 16,3 3 1 7 4 Z 1022,8 10 60 0,0
24.09.2017 13:00:00 14,2 11,1 18,3 16,4 13,8 16,3 3 2 8 4 ZZW 1023,3 9 12 0,0
24.09.2017 12:00:00 12,1 10,7 13,0 14,2 13,6 16,3 2 1 6 4 ZW 1023,6 6 0 0,0
24.09.2017 11:00:00 10,9 10,3 11,6 13,4 13,6 16,3 2 1 9 5 ZZW 1023,7 2,4 0 0,0
24.09.2017 10:00:00 10,6 10,3 11,2 12,4 13,6 16,3 2 1 6 4 ZW 1023,6 0,5 0 0,0
24.09.2017 09:00:00 10,3 10,1 10,7 11,7 13,6 16,3 4 2 7 4 WZW 1023,3 0,4 0 0,0
24.09.2017 08:00:00 10,2 10,1 10,3 11,4 13,7 16,3 4 2 9 5 ZW 1022,9 1,0 0 0,0
24.09.2017 07:00:00 10,2 9,7 10,2 11,2 13,9 16,3 4 2 8 5 ZW 1022,6 3,7 0 0,0
24.09.2017 06:00:00 9,7 9,2 9,6 10,8 14,1 16,3 2 1 6 3 WZW 1022,5 3,9 0 0,0
24.09.2017 05:00:00 8,8 8,3 8,7 10,2 14,4 16,3 4 2 7 4 ZZW 1022,5 5 0 0,0
24.09.2017 04:00:00 8,6 8,0 5,9 10,5 14,7 16,3 0 0 15 8 N 1022,6 3,5 0 0,0
24.09.2017 03:00:00 10,6 10,2 8,4 10,7 15,0 16,3 4 2 11 6 NNW 1022,6 5 0 0,0
24.09.2017 02:00:00 8,7 8,3 5,6 11,3 15,4 16,3 5 3 6 3 Z 1022,7 3,3 0 0,0
24.09.2017 01:00:00 10,2 9,6 7,3 12,1 15,7 16,3 5 3 8 4 ZZW 1022,8 5 0 0,0
24.09.2017 00:00:00 10,6 9,9 7,5 13,0 16,0 16,3 4 2 7 4 ZZW 1022,8 5 0 0,0
23.09.2017 23:00:00 11,7 10,7 8,3 13,9 16,3 16,3 3 2 9 5 ZZW 1022,4 9 0 0,0
23.09.2017 22:00:00 14,4 11,5 10,9 15,1 16,6 16,3 5 3 9 5 NW 1022,3 16 0 0,0
23.09.2017 21:00:00 15,7 11,5 12,7 16,3 16,7 16,3 6 3 11 6 NW 1022,2 20 0 0,0
23.09.2017 20:00:00 16,8 11,5 14,8 17,6 16,8 16,3 4 2 10 6 NNW 1021,9 19 0 0,0
23.09.2017 19:00:00 18,1 11,2 16,9 19,3 16,8 16,3 7 4 15 8 NNO 1021,6 26 49 0,0
23.09.2017 18:00:00 18,9 10,9 19,7 20,8 16,5 16,3 8 5 19 10 N 1021,7 31 48 0,0
23.09.2017 17:00:00 19,7 10,4 22,3 22,5 16,1 16,3 10 6 17 9 NW 1021,7 27 60 0,0
23.09.2017 16:00:00 19,4 10,8 23,0 22,4 15,7 16,3 8 4 19 10 NNW 1022,2 27 49 0,0
23.09.2017 15:00:00 18,9 10,6 21,2 21,9 15,1 16,3 4 2 15 8 NW 1022,7 23 31 0,0
23.09.2017 14:00:00 18,7 11,2 25,0 22,0 14,5 16,4 6 4 15 8 NNW 1023,0 21 48 0,0
23.09.2017 13:00:00 17,7 11,2 23,4 20,6 14,0 16,4 8 4 16 9 NNO 1023,5 18 50 0,0
23.09.2017 12:00:00 16,8 11,5 21,6 17,6 13,7 16,4 7 4 14 7 NW 1024,1 13 40 0,0
23.09.2017 11:00:00 14,7 12,2 17,0 14,6 13,5 16,4 2 1 7 4 NO 1024,6 13 2 0,0
23.09.2017 10:00:00 12,8 11,1 13,7 13,4 13,5 16,4 4 2 5 3 OZO 1024,5 13 12 0,0
23.09.2017 09:00:00 11,6 10,4 11,2 12,1 13,5 16,4 3 2 5 3 O 1024,3 14 0 0,0
23.09.2017 08:00:00 11,1 10,4 10,9 11,7 13,6 16,4 0 0 4 2 N 1024,2 12 0 0,0
23.09.2017 07:00:00 10,7 10,3 10,5 11,5 13,7 16,4 2 1 4 2 N 1023,9 7 0 0,0
23.09.2017 06:00:00 10,9 10,2 10,3 11,8 13,8 16,4 4 2 7 4 ZW 1023,9 11 0 0,0
23.09.2017 05:00:00 11,3 10,6 11,2 11,8 14,0 16,4 2 1 4 2 NNW 1023,8 10 0 0,0
23.09.2017 04:00:00 10,5 10,0 10,3 11,5 14,2 16,4 2 1 4 2 NW 1023,9 13 0 0,0
23.09.2017 03:00:00 9,8 9,4 9,1 11,4 14,4 16,4 4 2 7 4 Z 1023,9 10 0 0,0
23.09.2017 02:00:00 10,5 9,8 9,1 12,0 14,6 16,4 4 2 6 3 ZW 1023,8 11 0 0,0
23.09.2017 01:00:00 10,9 10,3 9,4 12,5 14,8 16,4 2 1 4 2 WZW 1023,4 11 0 0,0
23.09.2017 00:00:00 11,8 10,7 9,4 13,2 15,0 16,4 0 0 4 2 N 1023,3 18 0 0,0
22.09.2017 23:00:00 12,5 10,5 11,7 13,8 15,2 16,4 2 1 7 4 ZO 1023,1 24 0 0,0
22.09.2017 22:00:00 12,7 10,4 11,4 14,2 15,4 16,4 3 2 6 4 ZZW 1022,7 27 0 0,0
22.09.2017 21:00:00 13,1 10,6 11,9 14,9 15,5 16,5 5 3 6 4 ZZW 1022,1 32 0 0,0
22.09.2017 20:00:00 14,0 11,0 10,5 16,5 15,5 16,5 0 0 6 3 N 1021,4 28 0 0,0
22.09.2017 19:00:00 17,4 9,5 14,1 18,7 15,3 16,5 2 1 3 2 N 1020,8 65 23 0,0
22.09.2017 18:00:00 18,6 8,7 18,4 19,3 15,0 16,5 2 1 3 2 OZO 1020,6 68 0 0,0
22.09.2017 17:00:00 18,8 9,0 19,2 20,0 14,6 16,5 2 1 6 3 OZO 1020,5 55 6 0,0
22.09.2017 16:00:00 18,5 9,6 20,6 19,5 14,1 16,5 3 1 7 4 N 1020,4 37 11 0,0
22.09.2017 15:00:00 17,8 9,9 19,4 19,7 13,6 16,5 0 0 6 3 N 1020,5 28 16 0,0
22.09.2017 14:00:00 16,3 10,2 19,1 19,0 13,0 16,5 4 2 8 4 OZO 1020,6 15 27 0,0
22.09.2017 13:00:00 14,6 9,6 19,3 17,5 12,5 16,5 4 2 8 5 O 1020,9 11 60 0,0
22.09.2017 12:00:00 11,4 8,9 13,3 13,7 12,3 16,5 3 2 8 4 OZO 1021,4 7 14 0,0
22.09.2017 11:00:00 9,4 8,7 10,7 11,9 12,2 16,5 3 2 9 5 O 1021,7 2,1 0 0,0
22.09.2017 10:00:00 8,7 8,3 10,0 10,2 12,2 16,5 3 2 6 3 ZZO 1021,6 0,9 0 0,0
22.09.2017 09:00:00 7,8 7,6 8,4 9,2 12,4 16,5 4 2 8 4 ZZW 1021,4 3,3 0 0,0
22.09.2017 08:00:00 6,9 6,7 6,9 8,3 12,6 16,5 5 3 7 4 Z 1021,3 0,2 0 0,0
22.09.2017 07:00:00 6,4 5,9 5,7 7,8 12,9 16,5 4 2 5 3 ZZW 1020,8 11 0 0,0
22.09.2017 06:00:00 6,4 6,0 3,2 8,2 13,1 16,5 4 2 6 3 ZZW 1020,7 9 0 0,0
22.09.2017 05:00:00 6,9 6,5 3,8 8,8 13,4 16,5 4 2 6 3 ZZW 1020,8 8 0 0,0
22.09.2017 04:00:00 7,7 7,2 4,3 9,4 13,7 16,6 4 2 5 3 ZW 1020,8 11 0 0,0
22.09.2017 03:00:00 7,1 6,8 5,8 9,5 14,0 16,6 3 2 6 3 Z 1021,1 7 0 0,0
22.09.2017 02:00:00 7,7 7,3 4,4 10,0 14,4 16,6 3 2 6 4 ZZW 1021,3 10 0 0,0
22.09.2017 01:00:00 9,1 8,4 5,0 10,8 14,7 16,6 4 2 6 3 ZW 1021,0 18 0 0,0
22.09.2017 00:00:00 9,3 8,5 6,4 11,6 15,0 16,6 5 3 6 4 Z 1020,8 16 0 0,0
21.09.2017 23:00:00 10,6 9,1 7,2 12,5 15,3 16,6 5 3 6 4 ZZW 1020,8 24 0 0,0
21.09.2017 22:00:00 11,4 9,4 8,1 13,4 15,6 16,6 0 0 6 3 N 1020,5 31 0 0,0
21.09.2017 21:00:00 12,7 9,6 8,3 14,5 15,8 16,6 4 2 9 5 N 1020,2 35 0 0,0
21.09.2017 20:00:00 13,7 10,3 10,0 16,1 15,9 16,6 2 1 16 8 NNW 1019,8 47 0 0,0
21.09.2017 19:00:00 16,7 8,9 15,0 17,8 15,8 16,6 10 5 22 12 ZZO 1019,4 70 32 0,0
21.09.2017 18:00:00 18,2 8,7 18,0 19,6 15,5 16,6 14 8 22 12 ZO 1019,2 70 58 0,0
21.09.2017 17:00:00 18,6 9,4 19,2 21,7 15,0 16,6 10 6 19 10 OZO 1019,2 69 32 0,0
21.09.2017 16:00:00 18,5 8,8 19,9 22,4 14,4 16,6 6 3 13 7 ONO 1019,6 60 55 0,0
21.09.2017 15:00:00 18,2 8,9 22,3 22,2 13,6 16,6 6 4 13 7 ONO 1020,2 53 60 0,0
21.09.2017 14:00:00 17,2 8,3 22,4 20,6 13,0 16,6 4 2 9 5 NO 1020,7 40 60 0,0
21.09.2017 13:00:00 13,9 9,3 18,6 17,7 12,5 16,6 3 2 9 5 O 1021,6 18 60 0,0
21.09.2017 12:00:00 10,6 9,3 13,6 13,4 12,3 16,6 2 1 6 4 ZZO 1022,5 9 7 0,0
21.09.2017 11:00:00 8,3 8,2 9,7 11,7 12,2 16,7 3 2 8 4 Z 1023,1 1,4 0 0,0
21.09.2017 10:00:00 7,7 7,7 8,8 10,6 12,2 16,7 3 2 7 4 ZZW 1023,1 0,4 0 0,0
21.09.2017 09:00:00 7,1 7,1 7,9 9,8 12,3 16,7 4 2 10 6 ZZW 1022,9 0,3 0 0,0
21.09.2017 08:00:00 7,5 7,5 7,7 9,6 12,4 16,7 6 3 8 4 ZZW 1022,8 0,3 0 0,0
21.09.2017 07:00:00 7,5 7,4 7,7 9,4 12,5 16,7 4 2 8 4 Z 1022,6 0,3 0 0,0
21.09.2017 06:00:00 7,4 7,3 7,7 9,1 12,7 16,7 3 2 9 5 ZZW 1022,5 0,2 0 0,0
21.09.2017 05:00:00 7,0 6,8 7,1 8,7 12,9 16,7 5 3 8 4 ZZW 1022,5 0,8 0 0,0
21.09.2017 04:00:00 6,5 6,1 6,4 8,2 13,2 16,7 4 2 6 3 ZW 1022,6 15 0 0,0
21.09.2017 03:00:00 6,2 5,8 2,8 8,5 13,5 16,7 4 2 6 3 ZZW 1022,7 10 0 0,0
21.09.2017 02:00:00 7,0 6,5 3,6 9,1 13,9 16,7 3 2 7 4 ZZW 1022,7 17 0 0,0
21.09.2017 01:00:00 7,5 7,0 5,1 9,8 14,2 16,7 3 2 5 3 ZW 1022,5 14 0 0,0
21.09.2017 00:00:00 8,0 7,5 4,6 10,6 14,5 16,7 3 2 6 3 Z 1022,4 13 0 0,0
20.09.2017 23:00:00 9,2 8,4 7,0 11,5 14,8 16,7 3 2 6 3 ZZW 1022,2 22 0 0,0
20.09.2017 22:00:00 10,2 9,3 6,8 12,5 15,1 16,7 3 1 5 3 ZZW 1022,0 24 0 0,0
20.09.2017 21:00:00 11,0 9,7 6,9 13,8 15,2 16,7 2 1 7 4 Z 1021,8 27 0 0,0
20.09.2017 20:00:00 13,8 10,7 9,2 15,5 15,3 16,8 4 2 5 3 Z 1021,0 38 10 0,0
20.09.2017 19:00:00 16,0 9,4 15,0 16,5 15,2 16,8 2 1 13 7 N 1020,6 61 15 0,0
20.09.2017 18:00:00 16,6 9,7 16,6 17,8 15,0 16,8 8 4 19 10 N 1020,5 57 11 0,0
20.09.2017 17:00:00 17,1 9,1 17,3 19,1 14,7 16,8 5 3 23 12 WNW 1020,2 66 28 0,0
20.09.2017 16:00:00 16,6 9,4 17,9 18,6 14,2 16,8 5 3 11 6 O 1020,4 44 10 0,0
20.09.2017 15:00:00 16,1 9,3 17,1 19,4 13,7 16,8 9 5 14 8 ZZO 1020,8 38 17 0,0
20.09.2017 14:00:00 15,0 10,4 17,2 19,2 13,2 16,8 8 4 13 7 OZO 1021,5 19 40 0,0
20.09.2017 13:00:00 14,2 9,9 18,3 16,1 12,8 16,8 4 2 8 5 O 1022,2 13 10 0,0
20.09.2017 12:00:00 12,4 9,1 14,3 14,7 12,5 16,8 3 2 9 5 ONO 1022,7 12 0 0,0
20.09.2017 11:00:00 11,2 8,4 12,4 13,5 12,3 16,8 3 2 6 3 ZO 1022,7 11 4 0,0
20.09.2017 10:00:00 10,6 7,5 11,9 11,3 12,3 16,8 2 1 6 3 ONO 1022,5 11 17 0,0
20.09.2017 09:00:00 8,7 8,3 9,1 9,9 12,3 16,8 4 2 6 4 Z 1022,4 3,0 0 0,0
20.09.2017 08:00:00 8,1 7,7 8,1 9,2 12,5 16,8 4 2 6 4 Z 1022,2 1,2 0 0,0
20.09.2017 07:00:00 7,7 7,1 7,7 8,7 12,7 16,8 3 1 9 5 ZZO 1021,9 5 0 0,0
20.09.2017 06:00:00 6,6 6,3 5,0 8,4 12,9 16,9 3 2 4 2 Z 1021,9 3,4 0 0,0
20.09.2017 05:00:00 7,0 6,6 4,3 9,0 13,1 16,9 0 0 3 2 N 1021,9 2,5 0 0,0
20.09.2017 04:00:00 7,5 7,0 7,2 9,2 13,3 16,9 2 1 4 2 Z 1021,8 5 0 0,0
20.09.2017 03:00:00 7,0 6,7 6,6 8,8 13,7 16,9 2 1 5 3 ZW 1022,0 4,8 0 0,0
20.09.2017 02:00:00 6,5 6,1 3,7 9,0 14,0 16,9 3 2 6 3 ZZW 1021,9 4,0 0 0,0
20.09.2017 01:00:00 7,4 7,0 3,2 9,8 14,4 16,9 2 1 6 3 ZZO 1021,8 3,3 0 0,0
20.09.2017 00:00:00 8,5 8,0 4,1 10,7 14,7 16,9 0 0 5 3 N 1021,7 7 0 0,0
19.09.2017 23:00:00 9,1 8,1 5,4 11,5 15,0 16,9 3 1 9 5 WZW 1021,5 11 0 0,0
19.09.2017 22:00:00 10,9 8,5 6,1 12,6 15,2 16,9 5 3 7 4 W 1021,1 14 0 0,0
19.09.2017 21:00:00 12,6 8,6 8,5 14,0 15,4 16,9 4 2 16 8 NW 1020,6 24 0 0,0
19.09.2017 20:00:00 14,0 9,1 12,7 15,3 15,4 16,9 8 5 16 9 N 1019,6 34 0 0,0
19.09.2017 19:00:00 14,6 9,2 14,2 16,5 15,4 16,9 9 5 19 10 N 1019,0 33 12 0,0
19.09.2017 18:00:00 15,3 8,8 17,2 17,5 15,3 16,9 10 5 21 12 NW 1018,5 35 13 0,0
19.09.2017 17:00:00 14,2 10,4 15,0 17,8 15,1 16,9 8 5 13 7 O 1018,1 27 1 0,0
19.09.2017 16:00:00 14,1 9,8 14,4 18,0 14,8 16,9 8 4 20 11 NNO 1018,1 30 7 0,0
19.09.2017 15:00:00 14,7 9,4 15,1 18,3 14,4 17,0 10 5 28 15 N 1018,0 41 2 0,0
19.09.2017 14:00:00 15,8 8,9 20,9 19,7 13,9 17,0 10 6 18 10 NW 1017,6 56 42 0,0
19.09.2017 13:00:00 14,8 8,7 21,1 17,6 13,5 17,0 5 3 9 5 NNW 1017,5 37 27 0,0
19.09.2017 12:00:00 13,9 9,2 14,0 15,9 13,2 17,0 3 1 8 5 NO 1017,8 48 3 0,0
19.09.2017 11:00:00 13,1 9,4 13,1 13,7 13,1 17,0 2 1 8 4 ZO 1017,7 45 0 0,0
19.09.2017 10:00:00 11,9 9,2 11,7 12,7 13,1 17,0 5 3 11 6 ZZW 1017,6 36 0 0,0
19.09.2017 09:00:00 10,9 9,3 11,2 11,4 13,1 17,0 3 2 5 3 NO 1017,2 21 0 0,7
19.09.2017 08:00:00 10,1 9,2 9,9 10,9 13,2 17,0 2 1 5 3 NNO 1017,1 20 0 0,0
19.09.2017 07:00:00 10,0 8,7 9,3 10,8 13,4 17,0 2 1 6 4 ZO 1016,6 39 0 0,4
19.09.2017 06:00:00 10,3 8,2 9,2 11,0 13,5 17,0 4 2 11 6 WZW 1016,4 67 0 0,3

tt = temperatuur
td = dauwpunt
tt 5cm = temperatuur 5cm
tt -5cm = temperatuur -5cm
tt -20cm = temperatuur -20cm
tt -100cm = temperatuur -100cm
ff = windsnelheid
fx = windstoten
dd = windrichting
ppp = luchtdruk
vv = zicht
sd = Zonneschijnduur
rr = neerslag

Weerstations in de omgeving